Regional Weather Roundup
Issued by NWS

Home | Current Version | Previous Version | Graphics & Text | Print | Product List | Glossary On
Versions: 1 2 3 4 5 6 7 8 9 10 11 12 13 14 15 16 17 18 19 20 21 22 23 24 25 26 27 28 29 30 31 32 33 34 35 36 37 38 39 40 41 42 43 44 45 46 47 48 49 50
000
ASUS43 KIND 222159
RWRIN

WEATHER ROUNDUP FOR INDIANA
NATIONAL WEATHER SERVICE INDIANAPOLIS IN
500 PM EST MON DEC 22 2014

NOTE: "FAIR" INDICATES FEW OR NO CLOUDS BELOW 12,000 FEET WITH NO
SIGNIFICANT WEATHER AND/OR OBSTRUCTIONS TO VISIBILITY.

* - STATION DOES NOT REPORT WEATHER SUCH AS PRECIPITATION OR FOG.

+ - STATION NOT QUALITY CONTROLLED BY THE NATIONAL WEATHER SERVICE.
    USE DATA WITH CAUTION...ESPECIALLY DEWPOINT AND RELATIVE
    HUMIDITY OBSERVATIONS.

INZ001>003-010>013-019-020-222300-
NORTHWEST INDIANA

CITY           SKY/WX    TMP DP  RH WIND       PRES   REMARKS
GARY /AIRPORT/ LGT RAIN  39  36  87 SE12      29.72F
VALPARAISO     LGT RAIN  38  37  97 E12       29.75S FOG

$$

LMZ046-743>745-222300-
SOUTHERN LAKE MICHIGAN

STATION/POSITION TIME  TEMP WIND        PRES
                       AIR  DIR/SP/G
                 (UTC) (F)  (DEG/KT/KT) (MB)

$$

INZ004-005-014>016-021>024-222300-
NORTH CENTRAL INDIANA

CITY           SKY/WX    TMP DP  RH WIND       PRES   REMARKS
ELKHART        CLOUDY    36  32  87 E13       29.80F FOG
GOSHEN         CLOUDY    36  33  89 E13       29.80F FOG
SOUTH BEND     CLOUDY    37  33  85 SE14      29.79F FOG

$$

INZ006>009-017-018-025>027-222300-
NORTHEAST INDIANA

CITY           SKY/WX    TMP DP  RH WIND       PRES   REMARKS
ANGOLA *+      MOCLDY    36  32  87 E12       29.84F
FORT WAYNE     CLOUDY    37  33  85 E12       29.83F

$$

INZ028-029-035-036-043>045-051>053-222300-
WEST CENTRAL INDIANA

CITY           SKY/WX    TMP DP  RH WIND       PRES   REMARKS
GREENCASTLE +  LGT RAIN  41  36  81 SE10      29.72F
LAFAYETTE      LGT RAIN  41  38  89 E14       29.72F
TERRE HAUTE    LGT RAIN  46  42  86 SE10      29.69F

$$

INZ030>032-037>040-046>048-054>057-064-065-222300-
CENTRAL INDIANA

CITY           SKY/WX    TMP DP  RH WIND       PRES   REMARKS
INDIANAPOLIS   LGT RAIN  43  38  82 E12       29.74F
-EAGLE CREEK   CLOUDY    44  38  79 SE9       29.74F
KOKOMO *+      CLOUDY    39  34  81 E12       29.77F
MT COMFORT *+  CLOUDY    41  32  70 E9        29.77F
SHELBYVILLE    CLOUDY    44  37  76 E10       29.76F

$$

INZ033-034-041-042-049-050-058-059-222300-
EAST CENTRAL INDIANA

CITY           SKY/WX    TMP DP  RH WIND       PRES   REMARKS
MUNCIE         CLOUDY    41  36  82 E9        29.80S

$$

INZ060-061-067>069-081>083-085>088-222300-
SOUTHWEST INDIANA

CITY           SKY/WX    TMP DP  RH WIND       PRES   REMARKS
EVANSVILLE     CLOUDY    52  46  80 SE10G17   29.69F
HUNTINGBURG *+ CLOUDY    48  43  81 E13       29.71S

$$

INZ062-063-066-070>080-084-089>092-222300-
SOUTH CENTRAL AND SOUTHEAST INDIANA

CITY           SKY/WX    TMP DP  RH WIND       PRES   REMARKS
BLOOMINGTON    LGT RAIN  45  40  82 SE8       29.74F

$$



USA.gov is the U.S. government's official web portal to all federal, state and local government web resources and services.